,,,PA_Meas_PMT16A,,PR_Meas_QMR101_102,,RH_Meas_QMH101,,SR_Meas_QMS101,,TA_Meas_QMH101,,GenWind,,GenWind,
date,time,status,PA,status,PR,status,RH,status,SR,status,TA,status,DirAvg,status,SpdAvg,
2011-10-07, 00:00:04,VALID,1001.95,VALID,0,VALID,92.7838,VALID,0,VALID,23.4653,VALID,144,VALID,0,
2011-10-07, 00:01:04,VALID,1001.94,VALID,0,VALID,92.7914,VALID,0,VALID,23.428,VALID,144,VALID,0.159766,
2011-10-07, 00:02:04,VALID,1001.91,VALID,0,VALID,92.8372,VALID,0,VALID,23.4067,VALID,144,VALID,0.224609,
2011-10-07, 00:03:04,VALID,1001.92,VALID,0,VALID,92.8525,VALID,0,VALID,23.428,VALID,144,VALID,0.236328,
2011-10-07, 00:04:04,VALID,1001.88,VALID,0,VALID,92.8906,VALID,0,VALID,23.4067,VALID,144,VALID,0.357422,
2011-10-07, 00:05:04,VALID,1001.84,VALID,0,VALID,92.9211,VALID,0,VALID,23.4085,VALID,144,VALID,0.396094,
2011-10-07, 00:06:04,VALID,1001.84,VALID,0,VALID,92.9974,VALID,0,VALID,23.389,VALID,144,VALID,0.366406,
2011-10-07, 00:07:04,VALID,1001.83,VALID,0,VALID,92.9898,VALID,0,VALID,23.389,VALID,144,VALID,0.288672,
2011-10-07, 00:08:04,VALID,1001.8,VALID,0,VALID,93.0432,VALID,0,VALID,23.3677,VALID,144,VALID,0.398828,
2011-10-07, 00:09:04,VALID,1001.77,VALID,0,VALID,93.0737,VALID,0,VALID,23.3677,VALID,144,VALID,0.591016,
2011-10-07, 00:10:04,VALID,1001.76,VALID,0,VALID,93.0737,VALID,0,VALID,23.3695,VALID,144,VALID,0.630469,
2011-10-07, 00:11:04,VALID,1001.71,VALID,0,VALID,93.0661,VALID,0,VALID,23.35,VALID,144,VALID,0.659766,
2011-10-07, 00:12:04,VALID,1001.69,VALID,0,VALID,93.0508,VALID,0,VALID,23.3482,VALID,144,VALID,0.680859,
2011-10-07, 00:13:04,VALID,1001.65,VALID,0,VALID,93.0432,VALID,0,VALID,23.35,VALID,144,VALID,0.657812,
2011-10-07, 00:14:04,VALID,1001.63,VALID,0,VALID,92.9745,VALID,0,VALID,23.3287,VALID,144,VALID,0.697656,
2011-10-07, 00:15:04,VALID,1001.63,VALID,0,VALID,92.9745,VALID,0,VALID,23.3482,VALID,144,VALID,0.526563,
2011-10-07, 00:16:04,VALID,1001.6,VALID,0,VALID,92.9669,VALID,0,VALID,23.3677,VALID,144,VALID,0.492188,
2011-10-07, 00:17:04,VALID,1001.6,VALID,0,VALID,92.9211,VALID,0,VALID,23.3677,VALID,144,VALID,0.391797,
2011-10-07, 00:18:04,VALID,1001.53,VALID,0,VALID,92.883,VALID,0,VALID,23.3482,VALID,144,VALID,0.324219,
2011-10-07, 00:19:04,VALID,1001.54,VALID,0,VALID,92.8296,VALID,0,VALID,23.389,VALID,144,VALID,0.499609,
2011-10-07, 00:20:04,VALID,1001.51,VALID,0,VALID,92.7609,VALID,0,VALID,23.3482,VALID,144,VALID,0.416016,
2011-10-07, 00:21:04,VALID,1001.47,VALID,0,VALID,92.7075,VALID,0,VALID,23.3482,VALID,144,VALID,0.368359,
2011-10-07, 00:22:04,VALID,1001.46,VALID,0,VALID,92.6312,VALID,0,VALID,23.35,VALID,144,VALID,0.199219,
2011-10-07, 00:23:04,VALID,1001.41,VALID,0,VALID,92.5931,VALID,0,VALID,23.35,VALID,144,VALID,0.158594,
2011-10-07, 00:24:04,VALID,1001.4,VALID,0,VALID,92.5702,VALID,0.104696,VALID,23.3305,VALID,144,VALID,0,
2011-10-07, 00:25:04,VALID,1001.42,VALID,0,VALID,92.5168,VALID,0,VALID,23.311,VALID,144,VALID,0.01875,
2011-10-07, 00:26:04,VALID,1001.41,VALID,0,VALID,92.5168,VALID,0.104696,VALID,23.2507,VALID,144,VALID,0.579297,
2011-10-07, 00:27:04,VALID,1001.44,VALID,0,VALID,92.4863,VALID,0.104696,VALID,23.2524,VALID,144,VALID,0.767187,
2011-10-07, 00:28:04,VALID,1001.49,VALID,0,VALID,92.4939,VALID,0,VALID,23.2507,VALID,144,VALID,0.798437,
2011-10-07, 00:29:04,VALID,1001.51,VALID,0,VALID,92.5244,VALID,0,VALID,23.2915,VALID,144,VALID,0.822266,
2011-10-07, 00:30:04,VALID,1001.48,VALID,0,VALID,92.5091,VALID,0,VALID,23.3092,VALID,144,VALID,0.628125,
2011-10-07, 00:31:04,VALID,1001.46,VALID,0,VALID,92.5168,VALID,0,VALID,23.35,VALID,144,VALID,0.645312,
2011-10-07, 00:32:04,VALID,1001.41,VALID,0,VALID,92.4481,VALID,0,VALID,23.3287,VALID,144,VALID,0.517969,
2011-10-07, 00:33:04,VALID,1001.38,VALID,0,VALID,92.3566,VALID,0,VALID,23.35,VALID,144,VALID,0.466016,
2011-10-07, 00:34:04,VALID,1001.31,VALID,0,VALID,92.2803,VALID,0,VALID,23.35,VALID,144,VALID,0.408984,
2011-10-07, 00:35:04,VALID,1001.3,VALID,0,VALID,92.1582,VALID,0,VALID,23.3287,VALID,134,VALID,0.767969,
2011-10-07, 00:36:04,VALID,1001.28,VALID,0,VALID,91.8683,VALID,0.104696,VALID,23.3092,VALID,128,VALID,0.935156,
2011-10-07, 00:37:04,VALID,1001.23,VALID,0,VALID,91.4257,VALID,0,VALID,23.35,VALID,128,VALID,1.04492,
2011-10-07, 00:38:04,VALID,1001.22,VALID,0,VALID,91.0519,VALID,0,VALID,23.3482,VALID,128,VALID,0.787891,
2011-10-07, 00:39:04,VALID,1001.25,VALID,0,VALID,90.7696,VALID,0,VALID,23.3677,VALID,128,VALID,0.799609,
2011-10-07, 00:40:04,VALID,1001.28,VALID,0,VALID,90.4797,VALID,0,VALID,23.3677,VALID,128,VALID,0.641406,
2011-10-07, 00:41:04,VALID,1001.25,VALID,0,VALID,90.3881,VALID,0,VALID,23.3872,VALID,128,VALID,0.571094,
2011-10-07, 00:42:04,VALID,1001.26,VALID,0,VALID,90.3347,VALID,0,VALID,23.389,VALID,128,VALID,0.341016,
2011-10-07, 00:43:04,VALID,1001.23,VALID,0,VALID,90.3576,VALID,0,VALID,23.3482,VALID,128,VALID,0.328516,
2011-10-07, 00:44:04,VALID,1001.23,VALID,0,VALID,90.3805,VALID,0,VALID,23.3305,VALID,128,VALID,0.233203,
2011-10-07, 00:45:04,VALID,1001.2,VALID,0,VALID,90.5865,VALID,0,VALID,23.311,VALID,128,VALID,0.591016,
2011-10-07, 00:46:04,VALID,1001.17,VALID,0,VALID,90.7849,VALID,0,VALID,23.2897,VALID,128,VALID,0.384766,
2011-10-07, 00:47:04,VALID,1001.18,VALID,0,VALID,90.8611,VALID,0,VALID,23.2507,VALID,128,VALID,0.564844,
2011-10-07, 00:48:04,VALID,1001.18,VALID,0,VALID,90.9374,VALID,0,VALID,23.2524,VALID,128,VALID,0.44375,
2011-10-07, 00:49:04,VALID,1001.18,VALID,0,VALID,91.09,VALID,0,VALID,23.2312,VALID,128,VALID,0.325781,
2011-10-07, 00:50:04,VALID,1001.21,VALID,0,VALID,91.2274,VALID,0,VALID,23.2329,VALID,128,VALID,0.440234,
2011-10-07, 00:51:04,VALID,1001.23,VALID,0,VALID,91.4944,VALID,0,VALID,23.2719,VALID,128,VALID,0.432422,
2011-10-07, 00:52:04,VALID,1001.24,VALID,0,VALID,91.6317,VALID,0,VALID,23.2915,VALID,128,VALID,0.642187,
2011-10-07, 00:53:04,VALID,1001.27,VALID,0,VALID,91.6317,VALID,0,VALID,23.311,VALID,128,VALID,0.941797,
2011-10-07, 00:54:04,VALID,1001.23,VALID,0,VALID,91.5173,VALID,0,VALID,23.3305,VALID,128,VALID,0.905469,
2011-10-07, 00:55:04,VALID,1001.25,VALID,0,VALID,91.2426,VALID,0,VALID,23.3305,VALID,134,VALID,1.09492,
2011-10-07, 00:56:04,VALID,1001.24,VALID,0,VALID,90.6628,VALID,0,VALID,23.3305,VALID,140,VALID,1.44141,
2011-10-07, 00:57:04,VALID,1001.25,VALID,0,VALID,90.1287,VALID,0,VALID,23.3482,VALID,140,VALID,1.35234,
2011-10-07, 00:58:04,VALID,1001.23,VALID,0,VALID,89.8311,VALID,0,VALID,23.4085,VALID,140,VALID,1.13555,
2011-10-07, 00:59:04,VALID,1001.23,VALID,0,VALID,89.6099,VALID,0,VALID,23.4263,VALID,140,VALID,1.03125,
2011-10-07, 01:00:04,VALID,1001.22,VALID,0,VALID,89.4954,VALID,0,VALID,23.4475,VALID,140,VALID,1.05039,
2011-10-07, 01:01:04,VALID,1001.22,VALID,0,VALID,89.4726,VALID,0,VALID,23.4671,VALID,140,VALID,0.93125,
2011-10-07, 01:02:04,VALID,1001.21,VALID,0,VALID,89.4268,VALID,0,VALID,23.4671,VALID,140,VALID,0.776563,
2011-10-07, 01:03:04,VALID,1001.18,VALID,0,VALID,89.3734,VALID,0,VALID,23.4866,VALID,140,VALID,0.80625,
2011-10-07, 01:04:04,VALID,1001.19,VALID,0,VALID,89.3428,VALID,0,VALID,23.4671,VALID,140,VALID,0.672266,
2011-10-07, 01:05:04,VALID,1001.18,VALID,0,VALID,89.2971,VALID,0,VALID,23.4866,VALID,140,VALID,0.754687,
2011-10-07, 01:06:04,VALID,1001.17,VALID,0,VALID,89.2437,VALID,0,VALID,23.4866,VALID,140,VALID,0.921094,
2011-10-07, 01:07:04,VALID,1001.17,VALID,0,VALID,89.0453,VALID,0,VALID,23.4866,VALID,140,VALID,0.754297,
2011-10-07, 01:08:04,VALID,1001.16,VALID,0,VALID,88.9461,VALID,0,VALID,23.4671,VALID,143,VALID,0.96875,
2011-10-07, 01:09:04,VALID,1001.13,VALID,0,VALID,88.7172,VALID,0,VALID,23.4866,VALID,147,VALID,0.903516,
2011-10-07, 01:10:04,VALID,1001.11,VALID,0,VALID,88.5494,VALID,0,VALID,23.4866,VALID,147,VALID,0.828906,
2011-10-07, 01:11:04,VALID,1001.07,VALID,0,VALID,88.4578,VALID,0,VALID,23.4458,VALID,147,VALID,0.642578,
2011-10-07, 01:12:04,VALID,1001.03,VALID,0,VALID,88.5875,VALID,0,VALID,23.4475,VALID,147,VALID,0.364844,
2011-10-07, 01:13:04,VALID,1001,VALID,0,VALID,88.7706,VALID,0,VALID,23.4085,VALID,147,VALID,0.071875,
2011-10-07, 01:14:04,VALID,1001,VALID,0,VALID,88.9385,VALID,0,VALID,23.4085,VALID,147,VALID,0,
2011-10-07, 01:15:04,VALID,1000.97,VALID,0,VALID,88.9843,VALID,0,VALID,23.35,VALID,147,VALID,0,
2011-10-07, 01:16:04,VALID,1000.95,VALID,0,VALID,88.9766,VALID,0,VALID,23.3305,VALID,147,VALID,0,
2011-10-07, 01:17:04,VALID,1000.94,VALID,0,VALID,89.2208,VALID,0,VALID,23.3305,VALID,147,VALID,0.184766,
2011-10-07, 01:18:04,VALID,1000.93,VALID,0,VALID,89.3047,VALID,0,VALID,23.2915,VALID,147,VALID,0.515625,
2011-10-07, 01:19:04,VALID,1000.89,VALID,0,VALID,89.5565,VALID,0,VALID,23.2312,VALID,145,VALID,0.887891,
2011-10-07, 01:20:04,VALID,1000.88,VALID,0,VALID,89.5717,VALID,0,VALID,23.2524,VALID,139,VALID,0.658594,
2011-10-07, 01:21:04,VALID,1000.84,VALID,0,VALID,89.4878,VALID,0,VALID,23.2507,VALID,139,VALID,0.689844,
2011-10-07, 01:22:04,VALID,1000.82,VALID,0,VALID,89.5489,VALID,0,VALID,23.2524,VALID,139,VALID,0.665625,
2011-10-07, 01:23:04,VALID,1000.76,VALID,0,VALID,89.4878,VALID,0,VALID,23.2329,VALID,139,VALID,0.623047,
2011-10-07, 01:24:04,VALID,1000.73,VALID,0,VALID,89.5641,VALID,0,VALID,23.2524,VALID,139,VALID,0.479297,
2011-10-07, 01:25:04,VALID,1000.7,VALID,0,VALID,89.5717,VALID,0,VALID,23.2719,VALID,139,VALID,0.492188,
2011-10-07, 01:26:04,VALID,1000.66,VALID,0,VALID,89.5183,VALID,0,VALID,23.2719,VALID,139,VALID,0.587109,
2011-10-07, 01:27:04,VALID,1000.66,VALID,0,VALID,89.4268,VALID,0,VALID,23.2719,VALID,139,VALID,0.526953,
2011-10-07, 01:28:04,VALID,1000.66,VALID,0,VALID,89.442,VALID,0,VALID,23.2702,VALID,139,VALID,0.712891,
2011-10-07, 01:29:04,VALID,1000.68,VALID,0,VALID,89.3963,VALID,0,VALID,23.2915,VALID,139,VALID,0.461328,
2011-10-07, 01:30:04,VALID,1000.67,VALID,0,VALID,89.3657,VALID,0,VALID,23.2702,VALID,139,VALID,0.289453,
2011-10-07, 01:31:04,VALID,1000.65,VALID,0,VALID,89.3963,VALID,0,VALID,23.2915,VALID,139,VALID,0.692187,
2011-10-07, 01:32:04,VALID,1000.68,VALID,0,VALID,89.4573,VALID,0,VALID,23.2915,VALID,139,VALID,0.3375,
2011-10-07, 01:33:04,VALID,1000.67,VALID,0,VALID,89.3581,VALID,0,VALID,23.2719,VALID,139,VALID,0.261328,
2011-10-07, 01:34:04,VALID,1000.66,VALID,0,VALID,89.4573,VALID,0,VALID,23.2719,VALID,139,VALID,0.612109,
2011-10-07, 01:35:04,VALID,1000.67,VALID,0,VALID,89.6328,VALID,0,VALID,23.2507,VALID,139,VALID,0.600391,
2011-10-07, 01:36:04,VALID,1000.65,VALID,0,VALID,89.6404,VALID,0,VALID,23.2719,VALID,139,VALID,0.551172,
2011-10-07, 01:37:04,VALID,1000.64,VALID,0,VALID,89.6099,VALID,0,VALID,23.2507,VALID,139,VALID,0.452344,
2011-10-07, 01:38:04,VALID,1000.6,VALID,0,VALID,89.5565,VALID,0,VALID,23.2719,VALID,139,VALID,0.444531,
2011-10-07, 01:39:04,VALID,1000.61,VALID,0,VALID,89.6786,VALID,0,VALID,23.2312,VALID,139,VALID,0.380078,
2011-10-07, 01:40:04,VALID,1000.6,VALID,0,VALID,89.8311,VALID,0,VALID,23.2524,VALID,139,VALID,0.416406,
2011-10-07, 01:41:04,VALID,1000.58,VALID,0,VALID,89.854,VALID,0,VALID,23.2507,VALID,139,VALID,0.251563,
2011-10-07, 01:42:04,VALID,1000.62,VALID,0,VALID,89.732,VALID,0,VALID,23.2524,VALID,139,VALID,0.175,
2011-10-07, 01:43:04,VALID,1000.6,VALID,0,VALID,89.5794,VALID,0,VALID,23.2329,VALID,139,VALID,0.320703,
2011-10-07, 01:44:04,VALID,1000.6,VALID,0,VALID,89.4802,VALID,0,VALID,23.1726,VALID,139,VALID,0.354297,
2011-10-07, 01:45:04,VALID,1000.61,VALID,0,VALID,89.6251,VALID,0,VALID,23.1531,VALID,139,VALID,0.486328,
2011-10-07, 01:46:04,VALID,1000.59,VALID,0,VALID,89.7625,VALID,0,VALID,23.1549,VALID,139,VALID,0.676562,
2011-10-07, 01:47:04,VALID,1000.57,VALID,0,VALID,90.0219,VALID,0,VALID,23.1744,VALID,139,VALID,0.731641,
2011-10-07, 01:48:04,VALID,1000.56,VALID,0,VALID,90.0066,VALID,0,VALID,23.1744,VALID,139,VALID,0.746094,
2011-10-07, 01:49:04,VALID,1000.58,VALID,0,VALID,89.8464,VALID,0,VALID,23.1744,VALID,139,VALID,0.794141,
2011-10-07, 01:50:04,VALID,1000.58,VALID,0,VALID,89.442,VALID,0,VALID,23.1159,VALID,139,VALID,0.733984,
2011-10-07, 01:51:04,VALID,1000.58,VALID,0,VALID,89.6023,VALID,0,VALID,23.0964,VALID,139,VALID,0.549219,
2011-10-07, 01:52:04,VALID,1000.6,VALID,0,VALID,89.9761,VALID,0.104696,VALID,23.0573,VALID,139,VALID,0.433203,
2011-10-07, 01:53:04,VALID,1000.57,VALID,0,VALID,90.1363,VALID,0,VALID,22.9971,VALID,139,VALID,0.288281,
2011-10-07, 01:54:04,VALID,1000.56,VALID,0,VALID,90.6017,VALID,0,VALID,22.9581,VALID,139,VALID,0.349609,
2011-10-07, 01:55:04,VALID,1000.55,VALID,0,VALID,90.9298,VALID,0,VALID,22.9793,VALID,139,VALID,0.130078,
2011-10-07, 01:56:04,VALID,1000.53,VALID,0,VALID,91.1129,VALID,0,VALID,22.9598,VALID,139,VALID,0.0078125,
2011-10-07, 01:57:04,VALID,1000.52,VALID,0,VALID,91.2045,VALID,0,VALID,22.9013,VALID,139,VALID,0,
2011-10-07, 01:58:04,VALID,1000.5,VALID,0,VALID,91.4105,VALID,0,VALID,22.88,VALID,139,VALID,0.0425781,
2011-10-07, 01:59:04,VALID,1000.49,VALID,0,VALID,91.6012,VALID,0,VALID,22.9013,VALID,139,VALID,0.389062,
2011-10-07, 02:00:04,VALID,1000.47,VALID,0,VALID,91.7538,VALID,0,VALID,22.8818,VALID,139,VALID,0.370703,
2011-10-07, 02:01:04,VALID,1000.47,VALID,0,VALID,91.8377,VALID,0,VALID,22.9013,VALID,139,VALID,0.474219,
2011-10-07, 02:02:04,VALID,1000.48,VALID,0,VALID,91.8988,VALID,0,VALID,22.9013,VALID,139,VALID,0.469922,
2011-10-07, 02:03:04,VALID,1000.49,VALID,0,VALID,91.9293,VALID,0,VALID,22.8818,VALID,139,VALID,0.347656,
2011-10-07, 02:04:04,VALID,1000.5,VALID,0,VALID,91.9903,VALID,0,VALID,22.9013,VALID,139,VALID,0.0664063,
2011-10-07, 02:05:04,VALID,1000.49,VALID,0,VALID,91.9903,VALID,0,VALID,22.9013,VALID,139,VALID,0.317578,
2011-10-07, 02:06:04,VALID,1000.5,VALID,0,VALID,91.8911,VALID,0,VALID,22.8818,VALID,139,VALID,0.445703,
2011-10-07, 02:07:04,VALID,1000.49,VALID,0,VALID,91.7691,VALID,0,VALID,22.8605,VALID,139,VALID,0.704687,
2011-10-07, 02:08:04,VALID,1000.5,VALID,0,VALID,91.7691,VALID,0.104696,VALID,22.88,VALID,139,VALID,1.06992,
2011-10-07, 02:09:04,VALID,1000.49,VALID,0,VALID,91.6928,VALID,0,VALID,22.9598,VALID,139,VALID,1.10625,
2011-10-07, 02:10:04,VALID,1000.52,VALID,0,VALID,91.3647,VALID,0,VALID,23.0769,VALID,147,VALID,1.03477,
2011-10-07, 02:11:04,VALID,1000.5,VALID,0,VALID,90.9527,VALID,0,VALID,23.1531,VALID,164,VALID,1.12539,
2011-10-07, 02:12:04,VALID,1000.49,VALID,0,VALID,90.6017,VALID,0,VALID,23.2524,VALID,168,VALID,1.03789,
2011-10-07, 02:13:04,VALID,1000.47,VALID,0,VALID,90.2203,VALID,0.104696,VALID,23.311,VALID,168,VALID,1.17227,
2011-10-07, 02:14:04,VALID,1000.46,VALID,0,VALID,89.9456,VALID,0,VALID,23.35,VALID,168,VALID,1.07852,
2011-10-07, 02:15:04,VALID,1000.47,VALID,0,VALID,89.7014,VALID,0,VALID,23.3677,VALID,168,VALID,1.02422,
2011-10-07, 02:16:04,VALID,1000.46,VALID,0,VALID,89.4191,VALID,0,VALID,23.4085,VALID,168,VALID,0.840234,
2011-10-07, 02:17:04,VALID,1000.47,VALID,0,VALID,89.381,VALID,0,VALID,23.389,VALID,168,VALID,0.878125,
2011-10-07, 02:18:04,VALID,1000.47,VALID,0,VALID,89.4115,VALID,0,VALID,23.389,VALID,168,VALID,0.842969,
2011-10-07, 02:19:04,VALID,1000.46,VALID,0,VALID,89.5031,VALID,0.104696,VALID,23.3872,VALID,168,VALID,0.962109,
2011-10-07, 02:20:04,VALID,1000.5,VALID,0,VALID,89.3276,VALID,0,VALID,23.4085,VALID,168,VALID,0.773047,
2011-10-07, 02:21:04,VALID,1000.5,VALID,0,VALID,89.2666,VALID,0,VALID,23.4085,VALID,168,VALID,0.896875,
2011-10-07, 02:22:04,VALID,1000.52,VALID,0,VALID,89.2208,VALID,0.104696,VALID,23.389,VALID,168,VALID,0.680469,
2011-10-07, 02:23:04,VALID,1000.52,VALID,0,VALID,89.1826,VALID,0,VALID,23.35,VALID,168,VALID,0.701953,
2011-10-07, 02:24:04,VALID,1000.55,VALID,0,VALID,89.2666,VALID,0,VALID,23.311,VALID,168,VALID,0.6375,
2011-10-07, 02:25:04,VALID,1000.55,VALID,0,VALID,89.3352,VALID,0,VALID,23.2719,VALID,168,VALID,0.612891,
2011-10-07, 02:26:04,VALID,1000.53,VALID,0,VALID,89.4573,VALID,0.104696,VALID,23.2117,VALID,168,VALID,0.392188,
2011-10-07, 02:27:04,VALID,1000.53,VALID,0,VALID,89.7167,VALID,0.104696,VALID,23.2134,VALID,168,VALID,0.164063,
2011-10-07, 02:28:04,VALID,1000.56,VALID,0,VALID,89.9837,VALID,0.104696,VALID,23.1921,VALID,168,VALID,0.421094,
2011-10-07, 02:29:04,VALID,1000.54,VALID,0,VALID,90.3194,VALID,0.104696,VALID,23.1939,VALID,168,VALID,0.487109,
2011-10-07, 02:30:04,VALID,1000.54,VALID,0,VALID,90.5331,VALID,0.104696,VALID,23.1531,VALID,168,VALID,0.323828,
2011-10-07, 02:31:04,VALID,1000.55,VALID,0,VALID,90.6933,VALID,0,VALID,23.1531,VALID,168,VALID,0.420312,
2011-10-07, 02:32:04,VALID,1000.55,VALID,0,VALID,90.7009,VALID,0.104696,VALID,23.1141,VALID,168,VALID,0.371094,
2011-10-07, 02:33:04,VALID,1000.57,VALID,0,VALID,90.6399,VALID,0,VALID,23.0751,VALID,168,VALID,0.387891,
2011-10-07, 02:34:04,VALID,1000.57,VALID,0,VALID,90.7162,VALID,0.104696,VALID,23.0573,VALID,168,VALID,0.384375,
2011-10-07, 02:35:04,VALID,1000.56,VALID,0,VALID,90.9909,VALID,0.104696,VALID,23.0166,VALID,168,VALID,0.211328,
2011-10-07, 02:36:04,VALID,1000.54,VALID,0,VALID,91.2197,VALID,0,VALID,22.9971,VALID,168,VALID,0.0988281,
2011-10-07, 02:37:04,VALID,1000.5,VALID,0,VALID,91.3189,VALID,0,VALID,23.0201,VALID,168,VALID,0,
2011-10-07, 02:38:04,VALID,1000.48,VALID,0,VALID,91.3723,VALID,0,VALID,23.0006,VALID,168,VALID,0,
2011-10-07, 02:39:04,VALID,1000.46,VALID,0,VALID,91.4486,VALID,0,VALID,22.9811,VALID,168,VALID,0.003125,
2011-10-07, 02:40:04,VALID,1000.42,VALID,0,VALID,91.5478,VALID,0,VALID,22.9598,VALID,168,VALID,0,
2011-10-07, 02:41:04,VALID,1000.41,VALID,0,VALID,91.647,VALID,0,VALID,22.9793,VALID,168,VALID,0.0320312,
2011-10-07, 02:42:04,VALID,1000.43,VALID,0,VALID,91.7385,VALID,0,VALID,22.9988,VALID,168,VALID,0.128125,
2011-10-07, 02:43:04,VALID,1000.42,VALID,0,VALID,91.7614,VALID,0,VALID,23.0201,VALID,168,VALID,0.0175781,
2011-10-07, 02:44:04,VALID,1000.41,VALID,0,VALID,91.7843,VALID,0,VALID,23.0006,VALID,168,VALID,0.290234,
2011-10-07, 02:45:04,VALID,1000.42,VALID,0,VALID,91.8225,VALID,0,VALID,23.0201,VALID,168,VALID,0.402344,
2011-10-07, 02:46:04,VALID,1000.42,VALID,0,VALID,91.8683,VALID,0,VALID,22.9988,VALID,168,VALID,0.494531,
2011-10-07, 02:47:04,VALID,1000.42,VALID,0,VALID,91.7309,VALID,0,VALID,22.9793,VALID,168,VALID,0.566797,
2011-10-07, 02:48:04,VALID,1000.4,VALID,0,VALID,91.6394,VALID,0,VALID,22.9615,VALID,168,VALID,0.694531,
2011-10-07, 02:49:04,VALID,1000.38,VALID,0,VALID,91.6088,VALID,0,VALID,22.9013,VALID,168,VALID,0.847266,
2011-10-07, 02:50:04,VALID,1000.37,VALID,0,VALID,91.7004,VALID,0,VALID,22.8835,VALID,168,VALID,0.75,
2011-10-07, 02:51:04,VALID,1000.38,VALID,0,VALID,91.8377,VALID,0,VALID,22.8427,VALID,168,VALID,0.664844,
2011-10-07, 02:52:04,VALID,1000.36,VALID,0,VALID,91.914,VALID,0,VALID,22.8427,VALID,168,VALID,0.555469,
2011-10-07, 02:53:04,VALID,1000.34,VALID,0,VALID,92.0056,VALID,0,VALID,22.8232,VALID,168,VALID,0.520703,
2011-10-07, 02:54:04,VALID,1000.34,VALID,0,VALID,91.9827,VALID,0.104696,VALID,22.7647,VALID,168,VALID,0.590234,
2011-10-07, 02:55:04,VALID,1000.34,VALID,0,VALID,92.1277,VALID,0,VALID,22.7647,VALID,168,VALID,0.534375,
2011-10-07, 02:56:04,VALID,1000.36,VALID,0,VALID,92.326,VALID,0,VALID,22.7842,VALID,168,VALID,0.633594,
2011-10-07, 02:57:04,VALID,1000.37,VALID,0,VALID,92.471,VALID,0,VALID,22.7842,VALID,168,VALID,0.433203,
2011-10-07, 02:58:04,VALID,1000.37,VALID,0,VALID,92.5397,VALID,0,VALID,22.7647,VALID,168,VALID,0.618359,
2011-10-07, 02:59:04,VALID,1000.36,VALID,0,VALID,92.5549,VALID,0,VALID,22.7452,VALID,168,VALID,0.517187,
2011-10-07, 03:00:04,VALID,1000.36,VALID,0,VALID,92.5854,VALID,0,VALID,22.7257,VALID,168,VALID,0.233984,
2011-10-07, 03:01:04,VALID,1000.36,VALID,0,VALID,92.6236,VALID,0,VALID,22.7257,VALID,168,VALID,0.210938,
2011-10-07, 03:02:04,VALID,1000.35,VALID,0,VALID,92.6541,VALID,0,VALID,22.7062,VALID,168,VALID,0.0894531,
2011-10-07, 03:03:04,VALID,1000.33,VALID,0,VALID,92.7609,VALID,0.104696,VALID,22.724,VALID,168,VALID,0.0652344,
2011-10-07, 03:04:04,VALID,1000.35,VALID,0,VALID,92.8143,VALID,0,VALID,22.7045,VALID,168,VALID,0,
2011-10-07, 03:05:04,VALID,1000.34,VALID,0,VALID,92.9059,VALID,0,VALID,22.7452,VALID,168,VALID,0,
2011-10-07, 03:06:04,VALID,1000.35,VALID,0,VALID,92.9517,VALID,0,VALID,22.7452,VALID,168,VALID,0,
2011-10-07, 03:07:04,VALID,1000.36,VALID,0,VALID,93.0051,VALID,0,VALID,22.7647,VALID,168,VALID,0,
2011-10-07, 03:08:04,VALID,1000.39,VALID,0,VALID,93.0737,VALID,0,VALID,22.7842,VALID,168,VALID,0.208594,
2011-10-07, 03:09:04,VALID,1000.41,VALID,0,VALID,93.1348,VALID,0,VALID,22.8232,VALID,168,VALID,0.205469,
2011-10-07, 03:10:04,VALID,1000.4,VALID,0,VALID,93.1805,VALID,0,VALID,22.8232,VALID,168,VALID,0.170703,
2011-10-07, 03:11:04,VALID,1000.42,VALID,0,VALID,93.1805,VALID,0,VALID,22.841,VALID,168,VALID,0.232422,
2011-10-07, 03:12:04,VALID,1000.41,VALID,0,VALID,93.1958,VALID,0,VALID,22.8215,VALID,168,VALID,0.401563,
2011-10-07, 03:13:04,VALID,1000.43,VALID,0,VALID,93.1653,VALID,0,VALID,22.8427,VALID,168,VALID,0.483203,
2011-10-07, 03:14:04,VALID,1000.45,VALID,0,VALID,93.1271,VALID,0,VALID,22.8427,VALID,168,VALID,0.533203,
2011-10-07, 03:15:04,VALID,1000.44,VALID,0,VALID,93.0966,VALID,0,VALID,22.8232,VALID,168,VALID,0.428516,
2011-10-07, 03:16:04,VALID,1000.47,VALID,0,VALID,93.1119,VALID,0,VALID,22.8427,VALID,168,VALID,0.519141,
2011-10-07, 03:17:04,VALID,1000.46,VALID,0,VALID,93.1195,VALID,0,VALID,22.8623,VALID,168,VALID,0.628125,
2011-10-07, 03:18:04,VALID,1000.49,VALID,0,VALID,93.1424,VALID,0,VALID,22.8818,VALID,168,VALID,0.697266,
2011-10-07, 03:19:04,VALID,1000.51,VALID,0,VALID,93.15,VALID,0,VALID,22.9013,VALID,168,VALID,0.769531,
2011-10-07, 03:20:04,VALID,1000.52,VALID,0,VALID,93.1958,VALID,0,VALID,22.9208,VALID,168,VALID,0.885938,
2011-10-07, 03:21:04,VALID,1000.56,VALID,0,VALID,93.1805,VALID,0,VALID,22.9598,VALID,101,VALID,0.966797,
2011-10-07, 03:22:04,VALID,1000.55,VALID,0,VALID,93.1805,VALID,0,VALID,22.9793,VALID,83,VALID,1.17266,
2011-10-07, 03:23:04,VALID,1000.58,VALID,0,VALID,93.1271,VALID,0,VALID,22.9988,VALID,83,VALID,1.05703,
2011-10-07, 03:24:04,VALID,1000.53,VALID,0,VALID,93.0966,VALID,0,VALID,23.0378,VALID,83,VALID,0.971484,
2011-10-07, 03:25:04,VALID,1000.56,VALID,0,VALID,93.0203,VALID,0,VALID,23.0769,VALID,83,VALID,0.986328,
2011-10-07, 03:26:04,VALID,1000.53,VALID,0,VALID,92.8906,VALID,0,VALID,23.0769,VALID,83,VALID,0.989844,
2011-10-07, 03:27:04,VALID,1000.52,VALID,0,VALID,92.7685,VALID,0,VALID,23.0964,VALID,83,VALID,0.823047,
2011-10-07, 03:28:04,VALID,1000.47,VALID,0,VALID,92.6541,VALID,0,VALID,23.1159,VALID,83,VALID,0.742969,
2011-10-07, 03:29:04,VALID,1000.45,VALID,0,VALID,92.5778,VALID,0,VALID,23.0964,VALID,83,VALID,0.740625,
2011-10-07, 03:30:04,VALID,1000.45,VALID,0,VALID,92.5091,VALID,0,VALID,23.0964,VALID,83,VALID,0.639844,
2011-10-07, 03:31:04,VALID,1000.41,VALID,0,VALID,92.532,VALID,0,VALID,23.0964,VALID,83,VALID,0.488281,
2011-10-07, 03:32:04,VALID,1000.39,VALID,0,VALID,92.4557,VALID,0,VALID,23.0573,VALID,83,VALID,0.503516,
2011-10-07, 03:33:04,VALID,1000.38,VALID,0,VALID,92.4481,VALID,0,VALID,23.0769,VALID,83,VALID,0.549219,
2011-10-07, 03:34:04,VALID,1000.41,VALID,0,VALID,92.4176,VALID,0,VALID,23.0378,VALID,83,VALID,0.322656,
2011-10-07, 03:35:04,VALID,1000.4,VALID,0,VALID,92.4405,VALID,0,VALID,23.0183,VALID,83,VALID,0.275781,
2011-10-07, 03:36:04,VALID,1000.42,VALID,0,VALID,92.4328,VALID,0,VALID,22.9581,VALID,83,VALID,0.0304688,
2011-10-07, 03:37:04,VALID,1000.49,VALID,0,VALID,92.4252,VALID,0,VALID,22.942,VALID,83,VALID,0,
2011-10-07, 03:38:04,VALID,1000.5,VALID,0,VALID,92.4863,VALID,0,VALID,22.9013,VALID,83,VALID,0.0113281,
2011-10-07, 03:39:04,VALID,1000.51,VALID,0,VALID,92.6007,VALID,0,VALID,22.9013,VALID,83,VALID,0.246484,
2011-10-07, 03:40:04,VALID,1000.53,VALID,0,VALID,92.7151,VALID,0,VALID,22.9225,VALID,83,VALID,0.2625,
2011-10-07, 03:41:04,VALID,1000.54,VALID,0,VALID,92.8143,VALID,0,VALID,22.9225,VALID,83,VALID,0.389844,
2011-10-07, 03:42:04,VALID,1000.54,VALID,0,VALID,92.8983,VALID,0,VALID,22.9225,VALID,83,VALID,0.50625,
2011-10-07, 03:43:04,VALID,1000.55,VALID,0,VALID,92.9288,VALID,0,VALID,22.9438,VALID,83,VALID,0.453125,
2011-10-07, 03:44:04,VALID,1000.53,VALID,0,VALID,92.9364,VALID,0,VALID,22.942,VALID,83,VALID,0.325391,